When you browse on this site, cookies collect data to enhance your experience and personalize the content and advertising you see.
Visit our Privacy Policy to learn more. By continuing to use the site, you agree to this use of cookies and data.
  • In United Kingdom
  • List of Countries
  • For 7 days
  • Water Temperature
  • Weather Map
  • Weather Widgets
  • user-avatar
    Login

    Hourly Weather Narkevychi

    Today, 19 February, Wednesday

    Time Temperature Precipitation Wind Pressure Humidity
    00:00 +1°C° 0 mm 4 mps 737 mmHg 88%
    01:00 +2°C° 0 mm 3 mps 737 mmHg 89%
    02:00 +1°C° 0 mm 3 mps 737 mmHg 90%
    03:00 +1°C° 0 mm 3 mps 737 mmHg 90%
    04:00 0°C° 0 mm 3 mps 737 mmHg 91%
    05:00 0°C° 0 mm 3 mps 737 mmHg 91%
    06:00 0°C° 0 mm 3 mps 737 mmHg 90%
    07:00 +1°C° 0 mm 2 mps 737 mmHg 89%
    08:00 +1°C° 0 mm 2 mps 737 mmHg 88%
    09:00 +2°C° 0 mm 2 mps 737 mmHg 81%
    10:00 +3°C° 0 mm 3 mps 737 mmHg 74%
    11:00 +4°C° 0 mm 3 mps 737 mmHg 67%
    12:00 +5°C° 0 mm 3 mps 736 mmHg 62%
    13:00 +7°C° 0 mm 3 mps 736 mmHg 57%
    14:00 +7°C° 0 mm 2 mps 735 mmHg 52%
    15:00 +7°C° 0 mm 2 mps 735 mmHg 56%
    16:00 +6°C° 0 mm 2 mps 735 mmHg 60%
    17:00 +6°C° 0 mm 2 mps 734 mmHg 64%
    18:00 +5°C° 0 mm 2 mps 734 mmHg 68%
    19:00 +4°C° 0 mm 2 mps 734 mmHg 72%
    20:00 +4°C° 0 mm 2 mps 734 mmHg 76%
    21:00 +3°C° 0 mm 2 mps 734 mmHg 78%
    22:00 +3°C° 0 mm 2 mps 734 mmHg 80%
    23:00 +3°C° 0 mm 2 mps 734 mmHg 82%

    Tomorrow, 20 February, Thursday

    Time Temperature Precipitation Wind Pressure Humidity
    00:00 +3°C° 0 mm 2 mps 734 mmHg 84%
    01:00 +3°C° 0 mm 2 mps 734 mmHg 86%
    02:00 +3°C° 0 mm 2 mps 734 mmHg 89%
    03:00 +2°C° 0 mm 2 mps 734 mmHg 89%
    04:00 +2°C° 0 mm 2 mps 734 mmHg 89%
    05:00 +2°C° 0 mm 2 mps 734 mmHg 89%
    06:00 +2°C° 0 mm 2 mps 734 mmHg 90%
    07:00 +2°C° 0 mm 2 mps 734 mmHg 91%
    08:00 +1°C° 0 mm 3 mps 735 mmHg 91%
    09:00 +1°C° 0 mm 3 mps 735 mmHg 86%
    10:00 +2°C° 0 mm 3 mps 735 mmHg 81%
    11:00 +3°C° 0 mm 3 mps 736 mmHg 76%
    12:00 +3°C° 0 mm 3 mps 736 mmHg 74%
    13:00 +3°C° 0 mm 3 mps 736 mmHg 72%
    14:00 +4°C° 0 mm 3 mps 736 mmHg 70%
    15:00 +3°C° 0 mm 3 mps 736 mmHg 71%
    16:00 +4°C° 0 mm 2 mps 736 mmHg 71%
    17:00 +4°C° 0 mm 2 mps 736 mmHg 71%
    18:00 +3°C° 0 mm 2 mps 736 mmHg 73%
    19:00 +4°C° 0 mm 1 mps 737 mmHg 75%
    20:00 +3°C° 0 mm 1 mps 737 mmHg 78%
    21:00 +3°C° 0 mm 1 mps 737 mmHg 79%
    22:00 +3°C° 0 mm 1 mps 737 mmHg 80%
    23:00 +1°C° 0 mm 0 mps 737 mmHg 81%

    Day after tomorrow, 21 February, Friday

    Time Temperature Precipitation Wind Pressure Humidity
    00:00 +1°C° 0 mm 0 mps 738 mmHg 82%
    01:00 +1°C° 0 mm 0 mps 738 mmHg 83%
    02:00 +1°C° 0 mm 0 mps 738 mmHg 84%
    03:00 +1°C° 0 mm 0 mps 738 mmHg 84%
    04:00 +1°C° 0 mm 1 mps 737 mmHg 85%
    05:00 +1°C° 0 mm 1 mps 737 mmHg 85%
    06:00 +1°C° 0 mm 1 mps 737 mmHg 85%
    07:00 -1°C° 0 mm 2 mps 737 mmHg 86%
    08:00 -1°C° 0 mm 2 mps 737 mmHg 86%
    15:00 +4°C° 0 mm 3 mps 735 mmHg 69%
    16:00 +4°C° 0 mm 3 mps 735 mmHg 70%
    17:00 +5°C° 0 mm 2 mps 735 mmHg 71%
    18:00 +3°C° 0.1 mm 3 mps 735 mmHg 78%
    19:00 +2°C° 0.1 mm 3 mps 736 mmHg 85%
    20:00 0°C° 0.1 mm 4 mps 736 mmHg 92%
    21:00 0°C° 0.2 mm 4 mps 736 mmHg 93%
    22:00 0°C° 0.2 mm 4 mps 737 mmHg 94%
    23:00 0°C° 0.2 mm 4 mps 737 mmHg 96%

    22 February, Saturday

    Time Temperature Precipitation Wind Pressure Humidity
    00:00 0°C° 0.1 mm 4 mps 737 mmHg 94%
    01:00 -1°C° 0.1 mm 5 mps 738 mmHg 92%
    02:00 -2°C° 0.1 mm 6 mps 738 mmHg 90%
    03:00 -1°C° 0 mm 5 mps 738 mmHg 88%
    04:00 -1°C° 0 mm 5 mps 739 mmHg 87%
    05:00 -1°C° 0 mm 5 mps 739 mmHg 85%
    06:00 -1°C° 0 mm 5 mps 739 mmHg 87%
    07:00 -1°C° 0 mm 5 mps 740 mmHg 88%
    08:00 -2°C° 0 mm 5 mps 740 mmHg 89%
    09:00 -1°C° 0 mm 5 mps 741 mmHg 87%
    10:00 -1°C° 0 mm 5 mps 741 mmHg 84%
    11:00 0°C° 0 mm 5 mps 742 mmHg 82%
    12:00 +1°C° 0 mm 4 mps 741 mmHg 79%
    13:00 +1°C° 0 mm 4 mps 741 mmHg 75%
    14:00 +3°C° 0 mm 3 mps 741 mmHg 71%
    15:00 +3°C° 0 mm 3 mps 741 mmHg 71%
    16:00 +3°C° 0 mm 3 mps 741 mmHg 71%
    17:00 +3°C° 0 mm 3 mps 740 mmHg 70%
    18:00 +2°C° 0 mm 3 mps 740 mmHg 75%
    19:00 +1°C° 0 mm 3 mps 740 mmHg 79%
    20:00 0°C° 0 mm 3 mps 739 mmHg 84%
    21:00 -1°C° 0 mm 4 mps 739 mmHg 83%
    22:00 -1°C° 0 mm 4 mps 738 mmHg 82%
    23:00 -1°C° 0 mm 5 mps 738 mmHg 81%

    23 February, Sunday

    Time Temperature Precipitation Wind Pressure Humidity
    00:00 -1°C° 0 mm 5 mps 737 mmHg 78%
    01:00 -1°C° 0 mm 5 mps 736 mmHg 75%
    02:00 -1°C° 0 mm 6 mps 736 mmHg 72%
    03:00 -1°C° 0 mm 6 mps 735 mmHg 72%
    04:00 -1°C° 0 mm 6 mps 734 mmHg 73%
    05:00 -1°C° 0 mm 6 mps 734 mmHg 73%
    06:00 -1°C° 0.2 mm 7 mps 733 mmHg 75%
    07:00 0°C° 0.2 mm 7 mps 733 mmHg 77%
    08:00 0°C° 0.2 mm 7 mps 732 mmHg 79%
    09:00 +1°C° 0 mm 8 mps 732 mmHg 76%
    10:00 +2°C° 0 mm 9 mps 731 mmHg 74%
    11:00 +3°C° 0 mm 10 mps 731 mmHg 71%
    12:00 +3°C° 0.3 mm 10 mps 731 mmHg 76%
    13:00 +2°C° 0.3 mm 10 mps 731 mmHg 81%
    14:00 +2°C° 0.3 mm 10 mps 730 mmHg 86%
    15:00 +2°C° 0.1 mm 9 mps 730 mmHg 81%
    16:00 +2°C° 0.1 mm 9 mps 731 mmHg 77%
    17:00 +2°C° 0.1 mm 8 mps 731 mmHg 73%
    18:00 +2°C° 0 mm 7 mps 731 mmHg 76%
    19:00 +2°C° 0 mm 6 mps 731 mmHg 79%
    20:00 +1°C° 0 mm 5 mps 731 mmHg 83%
    21:00 +1°C° 0 mm 5 mps 731 mmHg 85%
    22:00 +1°C° 0 mm 4 mps 730 mmHg 87%
    23:00 +1°C° 0 mm 4 mps 730 mmHg 89%

    24 February, Monday

    Time Temperature Precipitation Wind Pressure Humidity
    00:00 +2°C° 0.3 mm 3 mps 728 mmHg 92%
    01:00 +1°C° 0.3 mm 3 mps 727 mmHg 94%
    02:00 +1°C° 0.3 mm 3 mps 726 mmHg 97%
    03:00 +1°C° 2.5 mm 4 mps 724 mmHg 96%
    04:00 +2°C° 2.5 mm 6 mps 722 mmHg 95%
    05:00 +1°C° 2.5 mm 8 mps 720 mmHg 94%
    06:00 +2°C° 1.7 mm 9 mps 719 mmHg 89%
    07:00 +3°C° 1.7 mm 11 mps 718 mmHg 84%
    08:00 +3°C° 1.7 mm 12 mps 717 mmHg 79%
    09:00 +1°C° 0.3 mm 13 mps 718 mmHg 83%
    10:00 -1°C° 0.3 mm 14 mps 720 mmHg 87%
    11:00 -4°C° 0.3 mm 15 mps 721 mmHg 91%
    12:00 -2°C° 0.2 mm 14 mps 723 mmHg 83%
    13:00 -2°C° 0.2 mm 13 mps 724 mmHg 76%
    14:00 -1°C° 0.2 mm 13 mps 725 mmHg 69%
    15:00 -1°C° 0.2 mm 12 mps 726 mmHg 71%
    16:00 -1°C° 0.2 mm 12 mps 727 mmHg 74%
    17:00 -2°C° 0.2 mm 12 mps 728 mmHg 77%
    18:00 -2°C° 0.1 mm 11 mps 729 mmHg 76%
    19:00 -2°C° 0.1 mm 11 mps 730 mmHg 74%
    20:00 -2°C° 0.1 mm 10 mps 731 mmHg 73%
    21:00 -2°C° 0 mm 10 mps 731 mmHg 73%
    22:00 -2°C° 0 mm 10 mps 732 mmHg 73%
    23:00 -3°C° 0 mm 9 mps 733 mmHg 74%
    Show more